XMM-NEWTON

Last updated on Sun Jun 21 2026 00:03:39 GMT+0000 (Coordinated Universal Time)

1 25989U 99066A 26173.33565867 -.00000042 00000+0 00000+0 0 9990 2 25989 64.4564 282.9193 4671880 64.8135 0.0790 0.50128039 23031
UTC large
Height (km)
Speed (km/s)
/
Latitude / Longitude
Inclination (degrees)
Orbital Period (minutes)
Azimuth
Elevation
Range (km)
Doppler Factor

Next 0 passes for location: London (51.5072 / 0.1276)

No passes found over London.
XMM-NEWTON